Preview of NWS' New Version of Forecast
This preview is not operational and should not be used for support decisions.

Regional Weather Roundup (RWR)

Issued by National Weather Service (NWS)

                            
000
ASCA42 TJSJ 180110
RWRPR 
PUERTO RICO/U.S. VIRGIN ISLANDS HOURLY WEATHER ROUNDUP
NATIONAL WEATHER SERVICE SAN JUAN PR
900 PM AST MON JUN 17 2019

PRZ001>002-007>008-010-180200-
PUERTO RICO
  
CITY           SKY/WX    TMP DP  RH WIND       PRES   REMARKS
SAN JUAN LMM   PTCLDY    82  77  83 E15       30.11R HX  91           
AGUADILLA      MOCLDY    81  77  89 E16       30.11R                  
CEIBA          CLOUDY    84  77  79 E10       30.12R HX  94           
$$

VIZ001>002-180200-
U.S. VIRGIN ISLANDS
  
CITY           SKY/WX    TMP DP  RH WIND       PRES   REMARKS
CHARLOTTE AMA  CLEAR     82  73  74 E15       30.10R                  
CHRISTIANSTED  LGT RAIN  81  75  83 E14       30.11R                  
$$

HOURLY WEATHER ROUNDUP FOR THE NEWS MEDIA
  
CITY           SKY/WX    TMP DP  RH WIND       PRES   REMARKS
ORLANDO        FAIR      76  72  87 E3        30.03S                  
NEW YORK       MOCLDY    69  67  93 SE3       29.99F                  
NEWARK         MOCLDY    73  64  73 SE3       29.97F                  
CHICAGO        MOCLDY    62  55  77 NE8       29.99S                  
HARTFORD       FAIR      63  58  83 S3        29.99R                  
BOSTON         MOCLDY    70  58  65 S10       29.97R                  
DALLAS         PTCLDY    86  63  45 E3        29.85S                  
PHILADELPHIA   LGT RAIN  69  69 100 SE5       29.97  FOG              
LOS ANGELES    PTSUNNY   68  57  68 W10       29.88S                  
WASHINGTON DC  MOCLDY    77  70  79 S5        29.98R THUNDER